Date String (YYYY-MM-DD hh:mm:ss) UTC,Instrument flags,absolute air pressure of the measurement (hPa),sample flow rate (lpm),inlet stack bypass flow (lpm),air temperature of the measurement (°C),ambient temperature measured by the external sensor (°C),aerosol sample conditioner tube jacket temperature (°C),OPC LED temperature (°C),internal box temperature (°C),relative humidity of the measurement (%),span deviation,mass concentration of particles derived from Lorenz-Mie calculation of OPC scattering (μg/m³),mass concentration of particles derived from Lorenz-Mie calculation of OPC scattering (μg/m³),mass concentration of particles derived from Lorenz-Mie calculation of OPC scattering (μg/m³)
DateTimeUTC,F1_M11,P_M11,Q1_M11,Q2_M11,T1_M11,T2_M11,T3_M11,T4_M11,T5_M11,U1_M11,ZSPAN_M11,X0_M11,X2_M11,X1_M11
2024-04-14 00:00:00,SystemResetWarning,0827.0,5.01,000.00,025.3,024.9,000.0,033.2,027.2,011.7,0000.0,0017.97,0004.12,0002.59
2024-04-14 00:01:00,SystemResetWarning,0826.9,4.99,000.00,025.2,024.0,000.0,033.3,026.7,011.2,0000.0,0016.84,0004.15,0002.58
2024-04-14 00:02:00,SystemResetWarning,0826.8,5.01,000.00,024.8,021.9,000.0,033.3,025.4,011.5,0000.0,0016.70,0004.17,0002.56
2024-04-14 00:03:00,SystemResetWarning,0826.8,5.02,000.00,024.5,021.5,000.0,033.3,025.1,011.6,0000.0,0016.69,0004.21,0002.55
2024-04-14 00:04:00,SystemResetWarning,0826.9,4.99,000.00,024.4,021.9,000.0,033.1,025.3,012.0,0000.0,0016.63,0004.26,0002.55
2024-04-14 00:05:00,SystemResetWarning,0826.9,5.00,000.00,024.4,022.3,000.0,033.0,025.7,012.2,0000.0,0016.87,0004.28,0002.55
2024-04-14 00:06:00,SystemResetWarning,0826.9,5.01,000.00,024.5,022.7,000.0,033.0,026.0,012.1,0000.0,0016.81,0004.30,0002.53
2024-04-14 00:07:00,SystemResetWarning,0826.9,5.00,000.00,024.5,023.1,000.0,032.9,026.2,011.9,0000.0,0016.94,0004.28,0002.52
2024-04-14 00:08:00,SystemResetWarning,0826.9,4.99,000.00,024.6,023.4,000.0,032.9,026.4,012.0,0000.0,0016.46,0004.32,0002.51
2024-04-14 00:09:00,SystemResetWarning,0826.9,5.00,000.00,024.7,023.7,000.0,032.9,026.6,011.7,0000.0,0016.08,0004.33,0002.54
2024-04-14 00:10:00,SystemResetWarning,0826.9,5.00,000.00,024.8,024.0,000.0,033.0,026.7,011.4,0000.0,0017.49,0004.34,0002.54
2024-04-14 00:11:00,SystemResetWarning,0826.9,5.01,000.00,024.9,024.2,000.0,033.0,026.8,011.4,0000.0,0018.75,0004.32,0002.54
2024-04-14 00:12:00,SystemResetWarning,0827.0,4.98,000.00,025.0,024.4,000.0,033.0,027.0,011.9,0000.0,0019.25,0004.34,0002.53
2024-04-14 00:13:00,SystemResetWarning,0826.9,5.00,000.00,025.1,024.6,000.0,033.1,027.1,012.8,0000.0,0018.89,0004.35,0002.53
2024-04-14 00:14:00,SystemResetWarning,0827.0,5.00,000.00,025.2,024.8,000.0,033.1,027.1,011.8,0000.0,0019.84,0004.29,0002.53
2024-04-14 00:15:00,SystemResetWarning,0826.9,5.00,000.00,025.3,024.9,000.0,033.2,027.3,011.4,0000.0,0020.17,0004.28,0002.50
2024-04-14 00:16:00,SystemResetWarning,0827.0,5.00,000.00,025.3,024.7,000.0,033.2,027.1,011.8,0000.0,0020.68,0004.27,0002.49
2024-04-14 00:17:00,SystemResetWarning,0826.9,4.97,000.00,025.1,022.8,000.0,033.3,026.0,013.7,0000.0,0019.43,0004.25,0002.48
2024-04-14 00:18:00,SystemResetWarning,0826.9,5.03,000.00,024.6,021.5,000.0,033.3,025.1,013.8,0000.0,0019.05,0004.23,0002.49
2024-04-14 00:19:00,SystemResetWarning,0826.9,4.99,000.00,024.4,021.8,000.0,033.3,025.2,013.6,0000.0,0018.65,0004.16,0002.48
2024-04-14 00:20:00,SystemResetWarning,0826.9,5.00,000.00,024.4,022.2,000.0,033.1,025.5,012.6,0000.0,0018.24,0004.13,0002.46
2024-04-14 00:21:00,SystemResetWarning,0826.9,5.01,000.00,024.5,022.6,000.0,033.0,025.9,013.1,0000.0,0017.13,0004.14,0002.44
2024-04-14 00:22:00,SystemResetWarning,0827.0,5.00,000.00,024.5,023.0,000.0,033.0,026.2,013.1,0000.0,0015.78,0004.13,0002.44
2024-04-14 00:23:00,SystemResetWarning,0827.0,5.00,000.00,024.6,023.3,000.0,033.0,026.3,012.8,0000.0,0016.30,0004.07,0002.42
2024-04-14 00:24:00,SystemResetWarning,0827.0,4.99,000.00,024.7,023.6,000.0,032.9,026.5,012.7,0000.0,0016.56,0004.04,0002.42
2024-04-14 00:25:00,SystemResetWarning,0827.0,5.00,000.00,024.8,023.9,000.0,033.0,026.6,011.9,0000.0,0015.84,0004.05,0002.42
2024-04-14 00:26:00,SystemResetWarning,0827.0,5.00,000.00,024.9,024.1,000.0,033.0,026.8,012.0,0000.0,0014.87,0004.00,0002.42
2024-04-14 00:27:00,SystemResetWarning,0827.0,5.00,000.00,025.0,024.3,000.0,033.0,026.9,012.3,0000.0,0013.95,0003.96,0002.42
2024-04-14 00:28:00,SystemResetWarning,0827.0,5.00,000.00,025.0,024.5,000.0,033.1,027.0,012.2,0000.0,0014.99,0003.94,0002.43
2024-04-14 00:29:00,SystemResetWarning,0827.0,5.00,000.00,025.1,024.7,000.0,033.1,027.1,012.3,0000.0,0014.95,0003.95,0002.45
2024-04-14 00:30:00,SystemResetWarning,0827.0,5.00,000.00,025.2,024.8,000.0,033.2,027.2,012.0,0000.0,0014.25,0004.00,0002.47
2024-04-14 00:31:00,SystemResetWarning,0827.0,4.99,000.00,025.3,024.6,000.0,033.2,027.0,011.8,0000.0,0014.77,0004.07,0002.51
2024-04-14 00:32:00,SystemResetWarning,0826.9,4.99,000.00,025.0,022.5,000.0,033.3,025.9,011.8,0000.0,0015.22,0004.03,0002.53
2024-04-14 00:33:00,SystemResetWarning,0826.9,5.02,000.00,024.6,021.3,000.0,033.3,025.1,012.2,0000.0,0016.30,0004.10,0002.56
2024-04-14 00:34:00,SystemResetWarning,0826.9,4.99,000.00,024.4,021.7,000.0,033.2,025.2,012.6,0000.0,0016.20,0004.14,0002.60
2024-04-14 00:35:00,SystemResetWarning,0826.9,4.99,000.00,024.4,022.1,000.0,033.0,025.5,012.8,0000.0,0015.88,0004.16,0002.62
2024-04-14 00:36:00,SystemResetWarning,0826.9,5.00,000.00,024.4,022.5,000.0,033.0,025.8,013.2,0000.0,0016.05,0004.16,0002.63
2024-04-14 00:37:00,SystemResetWarning,0826.9,5.00,000.00,024.5,022.9,000.0,032.9,026.1,013.0,0000.0,0017.10,0004.22,0002.66
2024-04-14 00:38:00,SystemResetWarning,0826.9,5.01,000.00,024.5,023.2,000.0,032.9,026.3,013.1,0000.0,0018.02,0004.29,0002.67
2024-04-14 00:39:00,SystemResetWarning,0827.0,4.99,000.00,024.6,023.6,000.0,032.9,026.5,012.5,0000.0,0017.69,0004.31,0002.68
2024-04-14 00:40:00,SystemResetWarning,0827.0,4.99,000.00,024.7,023.9,000.0,032.9,026.6,012.6,0000.0,0017.16,0004.30,0002.69
2024-04-14 00:41:00,SystemResetWarning,0826.9,5.00,000.00,024.8,024.1,000.0,032.9,026.8,013.0,0000.0,0018.14,0004.33,0002.69
2024-04-14 00:42:00,SystemResetWarning,0826.9,5.00,000.00,024.9,024.3,000.0,033.0,026.9,012.6,0000.0,0017.85,0004.31,0002.68
2024-04-14 00:43:00,SystemResetWarning,0826.9,5.01,000.00,025.0,024.5,000.0,033.0,027.0,012.5,0000.0,0017.47,0004.33,0002.69
2024-04-14 00:44:00,SystemResetWarning,0827.0,5.00,000.00,025.1,024.7,000.0,033.1,027.1,012.2,0000.0,0017.15,0004.35,0002.69
2024-04-14 00:45:00,SystemResetWarning,0827.0,5.01,000.00,025.2,024.8,000.0,033.1,027.2,012.1,0000.0,0016.41,0004.36,0002.68
2024-04-14 00:46:00,SystemResetWarning,0827.0,5.00,000.00,025.3,024.9,000.0,033.2,027.2,012.1,0000.0,0016.58,0004.36,0002.66
2024-04-14 00:47:00,SystemResetWarning,0826.9,4.99,000.00,025.2,023.7,000.0,033.3,026.5,012.2,0000.0,0016.64,0004.35,0002.66
2024-04-14 00:48:00,SystemResetWarning,0826.9,5.01,000.00,024.7,021.6,000.0,033.3,025.2,012.5,0000.0,0016.92,0004.36,0002.66
2024-04-14 00:49:00,SystemResetWarning,0826.9,5.01,000.00,024.4,021.5,000.0,033.2,025.1,012.8,0000.0,0016.26,0004.35,0002.67
2024-04-14 00:50:00,SystemResetWarning,0826.9,5.00,000.00,024.3,021.9,000.0,033.1,025.3,013.2,0000.0,0015.74,0004.34,0002.67
2024-04-14 00:51:00,SystemResetWarning,0826.9,4.99,000.00,024.4,022.3,000.0,033.0,025.7,013.1,0000.0,0016.61,0004.35,0002.68
2024-04-14 00:52:00,SystemResetWarning,0826.9,5.00,000.00,024.4,022.7,000.0,032.9,026.0,013.1,0000.0,0016.43,0004.40,0002.69
2024-04-14 00:53:00,SystemResetWarning,0826.9,5.00,000.00,024.5,023.1,000.0,032.9,026.2,012.9,0000.0,0016.51,0004.41,0002.71
2024-04-14 00:54:00,SystemResetWarning,0827.0,5.01,000.00,024.6,023.5,000.0,032.9,026.4,012.8,0000.0,0018.16,0004.42,0002.71
2024-04-14 00:55:00,SystemResetWarning,0827.0,4.99,000.00,024.7,023.8,000.0,032.9,026.6,012.7,0000.0,0018.29,0004.36,0002.71
2024-04-14 00:56:00,SystemResetWarning,0827.0,5.01,000.00,024.8,024.1,000.0,032.9,026.7,012.8,0000.0,0018.40,0004.32,0002.70
2024-04-14 00:57:00,SystemResetWarning,0827.0,5.00,000.00,024.9,024.3,000.0,033.0,026.8,012.9,0000.0,0018.37,0004.34,0002.72
2024-04-14 00:58:00,SystemResetWarning,0827.0,5.00,000.00,025.0,024.5,000.0,033.0,027.0,012.8,0000.0,0018.83,0004.39,0002.72
2024-04-14 00:59:00,SystemResetWarning,0827.0,5.00,000.00,025.1,024.6,000.0,033.1,027.1,012.8,0000.0,0018.38,0004.41,0002.70
